星链-37019(STARLINK-37019)

导读

STARLINK-37019(NORAD编号68273)是美国SpaceX公司星链(Starlink)项目的低轨互联网卫星,于2024年12月8日发射升空,截至2026年4月已在轨飞行超470天。该卫星运行在近地点约355公里、远地点约357公里的近地轨道,轨道倾角43.001°,周期约91.66分钟,属于Starlink V1.0平台,旨在为全球提供高速低延迟卫星互联网服务,由SpaceX自主研发运营,目前处于正常在轨运行状态。

Basic Information
目录编号:
68273
目录名称:
STARLINK-37019
国际标识:
2026-055M
轨道中心:
EARTH
卫星名称:
星链-37019
卫星全名:
星链-37019(STARLINK-37019)
卫星状态:
在轨 (已飞行83 天)
发射日期:
2026-03-19 UTC
国别 :
美国 (US)
星等 :
--
Orbit Information
数据来源 国际轨道数据 AOE轨道数据
星历时间 2026-06-09T20:45:00+0800
1天前
查看轨道信息
2026-06-07T11:00:00+0800
3天前
查看轨道信息
半长轴 6840.836km 6840.89km
偏心率 0.0001176 0.0001567
轨道倾角 53.159° 53.160°
近地点辐角 84.372° 121.594°
升交点赤经 251.162° 262.413°
平近点角 275.741° 259.419°
近地点 461.894km 461.681km
远地点 463.504km 463.825km
周期 93.848分钟 93.849分钟
每日圈数 15.344016 15.343833
Detailed Information
固有亮度:
5
最大亮度:
2.5
卫星平台:
Starlink V1.0
覆盖范围:
全球
运营商:
太空探索技术公司
运营商所在国:
美国
制造商(研发单位):
太空探索技术公司
制造商所在国:
美国
使用方式:
暂无
Satellite Introduction
Starlink 计划是 SpaceX 推出的全球卫星互联网项目,通过发射低轨道卫星,为全球尤其是偏远地区提供高速、低延迟的互联网服务。自 2019 年起,Starlink 已部署数千颗卫星,旨在缩小全球数字鸿沟,推动互联网普及。该项目还为军事、航空等行业提供通信支持,带来广泛经济效益。
2D Orbit Map
3D Orbit Map
Orbit Altitude Analysis Chart
Orbit Inclination Analysis Chart
Orbit Comprehensive Analysis Chart
View Comprehensive Chart